Kinston Regional Jetport At Stallings Field
KISO : now visible

Airfield :











YOU CAN JOIN US ON...

 
LOGIN :

Register | Disclaimer

   EN    FR    IT 

 









Legend :    VFR   Marginal VFR   IFR   Intensive IFR   Very Intensive IFR
Visi :
Ceiling :
>= 8 km
>= 3000ft
5 to 8 km
1000 to 3000 ft
1500m to 5 km
500 to 1000 ft
800 to 1500m
200 to 500 ft
< 800m
< 200 ft
Symbols :   Thunderstorms  Fog  Heavy snow  Heavy precipitations  Wind > 20 kt






- Airport Elevation : 93 ft


KISO - Kinston Regional Jetport At Stallings Field

CURRENT METAR :
  • 171956Z 34008KT 10SM SCT026 SCT036 29/23 A3006

EXPIRED METARs :
  • 171856Z 33004KT 10SM SCT025 SCT037 BKN065 28/23 A3007
  • 171756Z 34008KT 10SM BKN023 BKN047 29/23 A3009

TAF KISO
Valid from the 17 at 18:00 until the 18 at 18:00 UTC


171720Z 1718/1818 36008G13KT P6SM VCSH BKN030
FM172000 01006KT P6SM VCSH BKN040
FM180700 VRB03KT 5SM BR BKN020
FM180800 VRB03KT 3SM BR BKN010
FM181100 01004KT 2SM BR BKN007
FM181400 01005KT P6SM SCT060 AMD LTD TO CLD VIS AND WIND
KZDC FIR / North America



MET'MAP, your aeronautical weather chart ! - Copyright ORBIFLY December 2007 - Disclaimer

ORBIFLY MET'MAP TEAM :

Programming & Development : Alexandra Zaïnal
Concept & original design : Baudouin d'Aumeries
Assistance for programming : Marc-Olivier Méhu
Technical & hardware support : Manuel Goepfert

Contact : metmap@orbifly.com




SOURCES & CREDITS :

   NOAA       Earth
Advisory